| time (UTC) | temp C | wind direction | speed KPH | gust KPH | rain 1hr cm | rain 24hr cm | rain mn cm | humidity % | barometer mb |
| 20260904043007 | 12 | 132 | 0.0 | 0.0 | 0.03 | 1.55 | 1.22 | 73 | 1010.2 |
| 20260904041507 | 12 | 132 | 0.0 | 0.0 | 0.05 | 1.55 | 1.22 | 72 | 1010.1 |
| 20260904040003 | 12 | 134 | 0.0 | 0.0 | 0.08 | 1.55 | 1.22 | 71 | 1010.2 |
| 20260904034504 | 12 | 120 | 0.0 | 4.8 | 0.10 | 1.55 | 1.22 | 71 | 1010.1 |
| 20260904033027 | 12 | 113 | 0.0 | 3.2 | 0.08 | 1.52 | 1.19 | 71 | 1010.0 |
| 20260904031523 | 12 | 108 | 0.0 | 6.4 | 0.08 | 1.47 | 1.17 | 71 | 1010.0 |
| 20260904030018 | 13 | 111 | 0.0 | 3.2 | 0.05 | 1.47 | 1.14 | 70 | 1010.1 |
| 20260904024514 | 13 | 120 | 0.0 | 3.2 | 0.05 | 1.45 | 1.12 | 70 | 1010.0 |
| 20260904023011 | 13 | 117 | 0.0 | 3.2 | 0.05 | 1.45 | 1.12 | 69 | 1009.9 |
| 20260904021512 | 13 | 126 | 0.0 | 0.0 | 0.05 | 1.42 | 1.09 | 69 | 1009.9 |
| 20260904020004 | 13 | 152 | 0.0 | 1.6 | 0.05 | 1.42 | 1.09 | 68 | 1009.9 |
| 20260904014540 | 13 | 139 | 0.0 | 3.2 | 0.03 | 1.40 | 1.07 | 66 | 1009.8 |
| 20260904013027 | 13 | 137 | 0.0 | 9.7 | 0.03 | 1.40 | 1.07 | 66 | 1009.8 |
| 20260904011522 | 15 | 143 | 0.0 | 6.4 | 0.00 | 1.37 | 1.04 | 67 | 1009.8 |
| 20260904010016 | 15 | 127 | 0.0 | 4.8 | 0.00 | 1.37 | 1.04 | 67 | 1009.7 |
| 20260904004513 | 15 | 120 | 1.6 | 6.4 | 0.00 | 1.37 | 1.04 | 67 | 1009.8 |
| 20260904003012 | 14 | 120 | 0.0 | 4.8 | 0.00 | 1.40 | 1.04 | 67 | 1009.8 |
| 20260904001507 | 15 | 128 | 0.0 | 3.2 | 0.00 | 1.40 | 1.04 | 68 | 1010.0 |
| 20260904000032 | 15 | 121 | 0.0 | 3.2 | 0.05 | 1.40 | 1.04 | 66 | 1010.1 |
| 20260903234527 | 14 | 117 | 0.0 | 4.8 | 0.10 | 1.42 | 1.04 | 67 | 1009.9 |
| 20260903233027 | 14 | 95 | 0.0 | 4.8 | 0.10 | 1.42 | 1.04 | 68 | 1010.0 |
| 20260903231520 | 13 | 125 | 0.0 | 1.6 | 0.10 | 1.42 | 1.04 | 68 | 1010.2 |
| 20260903230019 | 13 | 112 | 0.0 | 0.0 | 0.05 | 1.37 | 0.99 | 68 | 1010.3 |
| 20260903224517 | 13 | 96 | 0.0 | 0.0 | 0.05 | 1.52 | 0.94 | 68 | 1010.4 |
| 20260903223011 | 13 | 172 | 0.0 | 3.2 | 0.18 | 1.65 | 0.94 | 68 | 1010.4 |
| 20260903221531 | 13 | 122 | 0.0 | 0.0 | 0.28 | 1.73 | 0.94 | 71 | 1010.3 |
| 20260903220040 | 12 | 122 | 0.0 | 1.6 | 0.28 | 1.80 | 0.94 | 71 | 1010.4 |
| 20260903214536 | 12 | 94 | 0.0 | 4.8 | 0.25 | 1.78 | 0.89 | 69 | 1010.8 |
| 20260903213003 | 12 | 151 | 0.0 | 3.2 | 0.13 | 1.68 | 0.76 | 68 | 1010.8 |
| 20260903211503 | 13 | 272 | 0.0 | 3.2 | 0.08 | 1.63 | 0.66 | 67 | 1010.7 |
| 20260903210004 | 12 | 225 | 0.0 | 1.6 | 0.08 | 1.65 | 0.66 | 68 | 1010.5 |
| 20260903204503 | 13 | 233 | 0.0 | 1.6 | 0.08 | 1.68 | 0.64 | 67 | 1010.7 |
| 20260903203014 | 13 | 91 | 0.0 | 1.6 | 0.08 | 1.68 | 0.64 | 67 | 1010.9 |
| 20260903201511 | 14 | 122 | 0.0 | 6.4 | 0.03 | 1.63 | 0.58 | 66 | 1010.7 |
| 20260903200006 | 14 | 125 | 0.0 | 4.8 | 0.03 | 1.63 | 0.58 | 66 | 1010.7 |
| 20260903194506 | 15 | 129 | 0.0 | 8.0 | 0.00 | 1.60 | 0.56 | 65 | 1010.7 |
| 20260903193004 | 15 | 105 | 0.0 | 16.1 | 0.00 | 1.63 | 0.56 | 64 | 1010.6 |
| 20260903191503 | 15 | 89 | 0.0 | 9.7 | 0.00 | 1.68 | 0.56 | 64 | 1010.7 |
| 20260903190004 | 15 | 110 | 0.0 | 9.7 | 0.00 | 1.70 | 0.56 | 67 | 1010.7 |
| 20260903184516 | 15 | 174 | 1.6 | 6.4 | 0.00 | 1.75 | 0.56 | 67 | 1010.6 |
| 20260903183016 | 14 | 160 | 1.6 | 4.8 | 0.00 | 1.80 | 0.56 | 68 | 1010.6 |
| 20260903181512 | 15 | 131 | 1.6 | 9.7 | 0.10 | 1.93 | 0.56 | 67 | 1010.7 |
| 20260903180010 | 15 | 179 | 0.0 | 6.4 | 0.28 | 2.01 | 0.56 | 68 | 1010.4 |
| 20260903174505 | 14 | 121 | 1.6 | 8.0 | 0.33 | 2.01 | 0.56 | 74 | 1010.6 |
| 20260903173006 | 13 | 124 | 0.0 | 3.2 | 0.33 | 2.03 | 0.56 | 70 | 1010.6 |
| 20260903171503 | 13 | 108 | 1.6 | 8.0 | 0.23 | 1.96 | 0.46 | 69 | 1010.7 |
| 20260903170036 | 14 | 176 | 1.6 | 11.3 | 0.05 | 1.80 | 0.28 | 66 | 1010.6 |
| 20260903164522 | 15 | 222 | 0.0 | 6.4 | 0.00 | 1.78 | 0.23 | 66 | 1010.6 |
| 20260903163023 | 15 | 128 | 1.6 | 8.0 | 0.00 | 1.80 | 0.23 | 65 | 1010.6 |
| 20260903161512 | 13 | 115 | 0.0 | 1.6 | 0.00 | 1.80 | 0.23 | 72 | 1010.7 |
| 20260903160012 | 13 | 120 | 0.0 | 1.6 | 0.00 | 1.80 | 0.23 | 73 | 1010.5 |
| 20260903154508 | 12 | 243 | 0.0 | 3.2 | 0.00 | 1.80 | 0.23 | 73 | 1010.6 |
| 20260903153007 | 12 | 107 | 0.0 | 6.4 | 0.00 | 1.80 | 0.23 | 73 | 1010.4 |
| 20260903151531 | 12 | 98 | 0.0 | 4.8 | 0.03 | 1.80 | 0.23 | 74 | 1010.6 |
| 20260903150052 | 12 | 120 | 0.0 | 1.6 | 0.03 | 1.80 | 0.23 | 75 | 1010.5 |
| 20260903144532 | 12 | 129 | 0.0 | 0.0 | 0.10 | 1.80 | 0.23 | 74 | 1010.6 |
| 20260903143027 | 12 | 135 | 0.0 | 1.6 | 0.15 | 1.80 | 0.23 | 73 | 1010.4 |
| 20260903141514 | 12 | 116 | 0.0 | 9.7 | 0.18 | 1.78 | 0.20 | 72 | 1010.4 |
| 20260903140034 | 12 | 129 | 0.0 | 8.0 | 0.20 | 1.78 | 0.20 | 72 | 1010.3 |
| 20260903134510 | 12 | 116 | 0.0 | 4.8 | 0.13 | 1.70 | 0.13 | 71 | 1010.4 |
| 20260903133035 | 12 | 146 | 0.0 | 3.2 | 0.08 | 1.65 | 0.08 | 70 | 1010.3 |
| 20260903131529 | 12 | 122 | 0.0 | 8.0 | 0.03 | 1.60 | 0.03 | 69 | 1010.2 |
| 20260903130027 | 12 | 115 | 0.0 | 4.8 | 0.00 | 1.57 | 0.00 | 69 | 1010.2 |
| 20260903124533 | 12 | 110 | 0.0 | 3.2 | 0.00 | 1.57 | 0.00 | 70 | 1010.2 |
| 20260903123004 | 12 | 119 | 0.0 | 4.8 | 0.00 | 1.57 | 0.00 | 71 | 1010.1 |
| 20260903121526 | 12 | 115 | 0.0 | 6.4 | 0.00 | 1.57 | 0.00 | 71 | 1010.2 |
| 20260903120016 | 12 | 131 | 0.0 | 6.4 | 0.00 | 1.57 | 0.00 | 71 | 1010.2 |
| 20260903114511 | 12 | 161 | 0.0 | 3.2 | 0.00 | 1.57 | 0.00 | 71 | 1010.3 |
| 20260903113006 | 12 | 176 | 0.0 | 1.6 | 0.00 | 1.57 | 0.00 | 71 | 1010.3 |
| 20260903111505 | 12 | 111 | 0.0 | 8.0 | 0.00 | 1.57 | 0.00 | 71 | 1010.3 |
| 20260903110004 | 12 | 128 | 0.0 | 4.8 | 0.00 | 1.57 | 0.00 | 72 | 1010.3 |
| 20260903104504 | 12 | 193 | 0.0 | 4.8 | 0.00 | 1.57 | 0.00 | 74 | 1010.4 |
| 20260903103026 | 12 | 113 | 0.0 | 1.6 | 0.00 | 1.57 | 0.00 | 75 | 1010.5 |
| 20260903101519 | 12 | 128 | 0.0 | 3.2 | 0.00 | 1.57 | 0.00 | 75 | 1010.6 |
| 20260903100019 | 12 | 158 | 0.0 | 3.2 | 0.00 | 1.57 | 0.00 | 75 | 1010.4 |
| 20260903094514 | 12 | 201 | 0.0 | 4.8 | 0.00 | 1.57 | 0.00 | 75 | 1010.2 |
| 20260903093010 | 12 | 194 | 0.0 | 3.2 | 0.00 | 1.57 | 0.00 | 75 | 1010.3 |
| 20260903091513 | 12 | 165 | 0.0 | 8.0 | 0.00 | 1.57 | 0.00 | 75 | 1010.3 |
| 20260903090028 | 12 | 153 | 0.0 | 4.8 | 0.00 | 1.57 | 0.00 | 76 | 1010.4 |
| 20260903084539 | 12 | 139 | 0.0 | 8.0 | 0.00 | 1.57 | 0.00 | 77 | 1010.4 |
| 20260903083025 | 12 | 127 | 0.0 | 1.6 | 0.00 | 1.57 | 0.00 | 78 | 1010.6 |
| 20260903081523 | 12 | 153 | 0.0 | 3.2 | 0.00 | 1.57 | 0.00 | 78 | 1010.6 |
| 20260903080016 | 12 | 316 | 0.0 | 3.2 | 0.00 | 1.57 | 0.00 | 78 | 1010.7 |
| 20260903074515 | 12 | 107 | 0.0 | 1.6 | 0.03 | 1.57 | 0.00 | 78 | 1010.6 |
| 20260903073011 | 12 | 144 | 0.0 | 4.8 | 0.05 | 1.57 | 0.00 | 78 | 1010.6 |
| 20260903071533 | 12 | 129 | 0.0 | 6.4 | 0.05 | 1.57 | 0.00 | 78 | 1010.6 |
| 20260903070032 | 12 | 119 | 0.0 | 4.8 | 0.05 | 1.57 | 0.00 | 78 | 1010.4 |
| 20260903064526 | 12 | 128 | 0.0 | 1.6 | 0.08 | 1.55 | 1.55 | 78 | 1010.6 |
| 20260903063030 | 13 | 109 | 0.0 | 1.6 | 0.18 | 1.52 | 1.52 | 78 | 1010.7 |
| 20260903061534 | 13 | 158 | 0.0 | 3.2 | 0.23 | 1.52 | 1.52 | 78 | 1010.7 |
| 20260903060019 | 13 | 108 | 0.0 | 1.6 | 0.28 | 1.52 | 1.52 | 78 | 1010.7 |
| 20260903054519 | 13 | 128 | 0.0 | 1.6 | 0.23 | 1.47 | 1.47 | 78 | 1010.8 |
| 20260903053045 | 13 | 116 | 0.0 | 3.2 | 0.10 | 1.32 | 1.32 | 78 | 1010.8 |
| 20260903051535 | 13 | 133 | 0.0 | 0.0 | 0.05 | 1.30 | 1.30 | 77 | 1010.8 |
| 20260903050035 | 13 | 141 | 0.0 | 1.6 | 0.00 | 1.24 | 1.24 | 77 | 1010.8 |
| 20260903044530 | 13 | 108 | 0.0 | 0.0 | 0.00 | 1.24 | 1.24 | 77 | 1010.6 |